Location: Noordwijk
(52.2400°N, 4.4500°E)
Time: 07:04:11
(UTC+00:00)

CAS-4B - Pass Details

Date: 16 December 2022
Orbit: 515 x 531 km, 43.0° (Epoch: 28 January)

Event Time Altitude Azimuth Distance (km) Brightness Sun altitude
Exits shadow 05:50:30 10° 224° (SW) 1,790 ? -16.3°
Reaches altitude 10° 05:50:43 10° 221° (SW) 1,766 ? -16.3°
Maximum altitude 05:51:43 11° 206° (SSW) 1,717 ? -16.2°
Drops below altitude 10° 05:52:43 10° 192° (SSW) 1,768 ? -16.0°
Sets 05:56:38 0° 154° (SSE) 2,659 ? -15.5°
